{"data":{"norad_id":66825,"epoch":"2026-09-20T13:40:56.178624Z","epoch_age_seconds":77995,"freshness":"FRESH","line1":"1 66825U 25280E   26263.57009466  .00002138  00000+0  18689-3 0  9998","line2":"2 66825  70.0020 203.2304 0003000 268.8230  91.2585 14.98337083 45256","mean_motion":14.98337083,"eccentricity":0.0003,"inclination_deg":70.002,"raan_deg":203.2304,"arg_perigee_deg":268.823,"mean_anomaly_deg":91.2585,"bstar":0.00018689,"rev_number":4525,"period_min":96.106544804778,"perigee_km":569.94893614125,"apogee_km":574.11903873371,"semimajor_km":6950.1709874375,"source":"CELESTRAK","updated_at":"2026-09-21T09:00:36.020199Z"}}